Probability
10 8 6 4 4 5 6 6 6 6 6 5 4 2 1 0 0 0 1 5 9 11 14 17 16 14 15 18 20 24 26 25 22 21 19 14 8 5 4 5 8 9 8
10 9 7 5 5 6 6 6 6 6 6 5 3 1 0 0 0 0 1 5 8 10 14 18 17 13 12 14 17 20 22 25 27 25 22 18 12 8 7 6 9 12 12
11 9 7 6 6 6 6 5 5 5 5 4 2 0 0 0 0 0 1 3 5 7 11 15 15 11 7 9 12 14 16 21 26 26 23 20 17 13 9 8 11 14 14
9 9 8 6 5 5 5 5 5 4 4 2 1 0 0 0 0 0 0 0 1 3 5 8 9 7 4 6 9 9 11 15 19 21 20 19 20 18 13 10 11 13 13
7 8 7 5 4 3 4 5 4 3 2 1 0 0 0 0 0 0 0 0 0 2 3 4 5 4 4 6 8 8 9 12 14 16 16 16 19 21 18 12 11 12 13
7 7 7 5 4 3 3 4 3 3 3 2 1 0 0 0 0 0 0 0 0 1 2 2 2 2 3 5 6 7 9 11 14 15 15 16 18 20 18 13 11 13 16
7 6 5 5 3 2 2 2 2 2 2 2 1 0 0 0 0 0 0 0 0 0 1 1 1 1 1 2 2 4 8 10 13 15 16 19 22 21 17 13 12 14 16
5 4 4 4 3 3 1 1 1 1 1 1 0 0 0 0 0 0 0 0 0 0 0 0 0 0 0 0 0 1 4 7 9 12 14 18 23 23 18 13 12 13 14
4 3 3 4 4 4 1 0 0 0 0 0 0 0 0 0 0 0 0 0 0 0 0 0 0 0 0 0 0 0 1 3 6 9 12 15 18 20 19 14 10 10 12
6 5 5 5 5 4 1 0 0 0 0 0 0 0 0 0 0 0 0 0 0 0 0 0 0 0 0 0 0 0 0 1 3 7 10 11 13 15 16 12 7 6 7
8 7 5 4 3 2 0 0 0 0 0 0 0 0 0 0 0 0 0 0 0 0 0 0 0 0 0 0 0 0 0 0 1 3 6 7 9 10 10 8 5 3 4
7 6 4 2 1 0 0 0 0 0 0 0 0 0 0 0 0 0 0 0 0 0 0 0 0 0 0 0 0 0 0 0 0 1 2 3 5 7 7 5 4 4 3
6 5 3 1 0 0 0 0 0 0 0 0 0 0 0 0 0 0 0 0 0 0 0 0 0 0 0 0 0 0 0 0 0 0 0 1 3 5 5 4 3 4 4
6 4 3 2 1 0 0 0 0 0 0 0 0 0 0 0 0 0 0 0 0 0 0 0 0 0 0 0 0 0 0 0 0 0 0 0 1 2 3 3 3 3 3
6 4 3 2 1 0 0 0 0 0 0 0 0 0 0 0 0 0 0 0 0 0 0 0 0 0 0 0 0 0 0 0 0 0 0 0 0 0 1 1 1 3 3
4 3 2 2 1 0 0 0 0 0 0 0 0 0 0 0 0 0 0 0 0 0 0 0 0 0 0 0 0 0 0 0 0 0 0 0 0 0 0 0 1 2 2
3 2 1 1 0 0 0 0 0 0 0 0 0 0 0 0 0 0 0 0 0 0 0 0 0 0 0 0 0 0 0 0 0 0 0 0 0 0 0 0 0 1 1
2 1 0 0 0 0 0 0 0 0 0 0 0 0 0 0 0 0 0 0 0 0 0 0 0 0 0 0 0 0 0 0 0 0 0 0 0 0 0 0 0 0 0
2 1 0 0 0 0 0 0 0 0 0 0 0 0 0 0 0 0 0 0 0 0 0 0 0 0 0 0 0 0 0 0 0 0 0 0 0 0 0 0 0 0 0
2 1 0 0 0 0 0 0 0 0 0 0 0 0 0 0 0 0 0 0 0 0 0 0 0 0 0 0 0 0 0 0 0 0 0 0 0 0 0 0 0 0 0
2 1 0 0 0 0 0 0 0 0 0 0 0 0 0 0 0 0 0 0 0 0 0 0 0 0 0 0 0 0 0 0 0 0 0 0 0 0 0 0 0 0 0
2 1 0 0 0 0 0 0 0 0 0 0 0 0 0 0 0 0 0 0 0 0 0 0 0 0 0 0 0 0 0 0 0 0 0 0 0 0 0 0 0 0 0
1 0 0 0 0 0 0 0 0 0 0 0 0 0 0 0 0 0 0 0 0 0 0 0 0 0 0 0 0 0 0 0 0 0 0 0 0 0 0 0 0 0 0
0 0 0 0 0 0 0 0 0 0 0 0 0 0 0 0 0 0 0 0 0 0 0 0 0 0 0 0 0 0 0 0 0 0 0 0 0 0 0 0 0 0 0
0 0 0 0 0 0 0 0 0 0 0 0 0 0 0 0 0 0 0 0 0 0 0 0 0 0 0 0 0 0 0 0 0 0 0 0 0 0 0 0 0 0 0
0 0 0 0 0 0 0 0 0 0 0 0 0 0 0 0 0 0 0 0 0 0 0 0 0 0 0 0 0 0 0 0 0 0 0 0 0 0 0 0 0 0 0
Wind_Speed
2 2 2 2 2 2 2 2 2 2 3 3 3 4 4 4 4 3 3 7 8 7 9 11 11 12 12 12 12 12 12 14 15 15 15 16 16 16 16 16 16 16 16
2 2 2 2 2 2 2 2 2 2 2 2 3 4 4 4 4 4 3 4 6 6 6 8 10 11 11 12 12 12 12 13 13 14 15 15 16 16 16 16 17 17 16
2 2 1 1 2 2 1 1 2 1 2 2 3 4 3 3 3 4 4 3 3 6 7 7 8 11 12 12 12 12 12 12 13 14 15 15 15 16 17 17 17 17 17
2 1 1 1 2 1 1 1 1 1 2 2 3 3 3 3 4 4 4 4 3 3 5 7 8 10 11 11 12 12 12 12 12 13 14 15 15 16 17 17 18 18 17
1 1 1 1 1 1 1 1 1 1 2 2 3 3 3 3 3 3 4 4 4 4 3 5 9 9 10 11 12 13 13 13 13 13 13 14 14 14 15 17 18 18 17
1 1 1 1 1 0 1 1 1 1 1 2 3 3 3 3 2 2 3 2 3 4 4 5 4 6 9 10 11 12 13 13 13 13 14 14 13 13 13 14 16 17 18
1 1 0 0 0 0 1 1 1 1 1 1 1 3 3 2 2 2 2 2 2 3 3 4 3 3 3 8 9 11 12 13 13 13 14 13 12 12 12 13 15 16 16
1 1 1 0 0 0 1 1 0 0 1 0 1 1 3 4 3 2 1 2 2 2 2 4 3 4 3 3 6 11 11 11 12 14 14 13 12 12 12 13 14 15 16
1 1 1 1 0 0 1 2 1 1 1 1 1 2 1 2 3 3 2 2 2 2 3 3 4 4 5 4 4 8 11 11 12 13 14 14 13 13 12 13 14 15 16
1 1 1 1 1 1 1 2 1 1 1 1 1 1 2 3 2 3 3 2 3 3 3 3 3 4 4 4 5 8 9 10 12 12 12 13 13 13 13 14 15 15 16
1 1 1 1 1 1 1 2 1 1 1 2 2 1 1 1 2 2 3 3 3 3 3 4 3 3 4 4 4 6 9 9 10 11 11 12 13 13 13 14 15 15 15
1 1 1 1 1 1 2 2 2 2 2 2 2 2 2 2 2 2 3 3 3 4 3 3 3 3 3 3 5 7 8 9 10 11 11 12 13 13 13 13 15 15 15
1 2 1 1 1 2 2 2 2 2 2 2 2 2 2 3 2 3 3 3 3 3 3 3 3 3 3 3 4 7 7 8 9 10 11 11 12 12 12 12 13 14 14
2 2 2 2 2 2 2 2 1 2 2 2 3 3 2 3 2 3 3 2 2 2 2 4 3 3 3 3 5 7 5 8 9 9 10 11 11 12 12 11 11 12 12
1 1 1 1 2 2 2 2 2 3 2 2 3 3 3 2 2 2 2 2 3 3 3 3 3 3 3 3 5 4 4 7 9 9 9 9 9 10 11 10 10 10 10
1 1 1 2 2 2 2 1 2 2 2 3 2 3 3 2 2 2 2 2 3 3 3 3 3 4 3 3 4 3 4 8 8 9 9 9 9 10 10 10 10 10 10
1 1 2 1 2 2 1 1 2 2 2 3 3 3 4 3 2 2 2 1 2 2 3 3 3 3 3 3 4 3 4 4 4 8 9 9 10 10 10 11 11 11 10
2 1 1 1 1 2 2 2 3 3 2 3 3 3 4 3 2 2 2 2 2 2 3 4 3 2 3 3 3 4 4 4 4 6 9 9 9 10 11 11 11 11 11
1 1 1 1 1 2 2 3 3 3 3 3 3 3 4 2 3 2 2 2 3 2 2 3 4 3 2 2 2 3 4 3 4 4 6 8 9 10 10 10 11 11 11
1 1 1 1 1 1 2 3 3 3 3 3 3 3 3 3 3 3 3 3 3 2 2 2 3 3 3 3 1 2 3 3 3 3 3 4 6 8 9 10 10 11 11
1 2 1 1 1 1 2 2 2 2 2 3 3 3 3 3 4 3 2 3 2 2 2 2 3 2 3 2 2 2 3 3 3 2 2 3 3 3 5 7 9 11 11
2 1 1 1 1 2 3 4 2 2 2 2 3 4 4 4 5 5 5 5 4 4 4 3 3 3 4 4 3 2 2 2 3 2 1 3 2 3 4 4 8 11 12
1 1 1 1 1 3 4 4 4 2 2 3 3 4 4 4 4 4 5 6 6 7 7 5 4 5 5 4 3 3 3 3 4 3 1 4 3 4 4 5 8 10 10
1 1 1 2 2 4 5 4 4 2 2 3 3 3 3 4 5 4 4 5 5 5 5 4 5 6 6 5 4 4 4 3 4 3 3 3 3 3 4 3 6 9 10
1 2 2 2 2 4 5 4 3 2 2 4 4 4 3 4 6 5 3 4 6 6 6 5 6 7 8 8 6 2 2 2 3 4 2 3 3 3 3 3 5 8 9
1 1 2 2 2 3 4 4 3 1 2 4 4 4 5 5 7 5 3 3 5 6 6 6 5 6 5 6 7 5 4 3 3 4 3 2 2 1 2 3 2 3 4
Wind_Direction
210 216 228 232 237 230 226 233 237 245 254 259 260 252 248 239 232 222 229 240 241 245 243 232 227 227 226 226 226 223 223 222 220 217 214 214 214 214 213 211 209 207 206
199 201 227 237 233 229 229 227 230 236 253 258 265 262 254 245 237 229 221 231 228 227 233 235 228 229 230 230 233 231 228 228 225 223 221 218 216 215 215 215 213 210 209
192 192 209 233 243 242 235 234 252 259 273 274 276 275 267 257 245 232 226 218 219 220 225 238 239 233 231 232 234 235 232 231 230 229 227 224 221 220 218 217 215 213 212
186 185 211 240 247 240 231 237 255 264 275 276 274 271 271 268 260 237 226 218 213 218 226 234 243 244 240 239 239 238 236 234 235 234 233 230 227 224 222 221 218 215 213
183 185 231 251 242 224 233 255 256 228 262 282 277 271 272 269 262 257 237 222 213 205 210 230 242 246 246 245 243 242 241 240 239 238 237 236 233 229 226 225 221 217 215
196 185 216 255 242 213 289 271 256 256 248 268 286 294 279 266 257 256 248 230 219 213 212 224 236 246 247 251 246 243 244 244 243 242 240 240 237 232 229 226 224 221 217
182 159 169 301 10 219 255 257 255 281 276 308 334 314 304 283 267 259 249 231 230 233 223 222 224 227 247 247 243 243 245 248 248 246 244 242 237 232 229 228 227 225 221
176 149 139 155 298 310 308 289 266 275 280 322 139 342 327 325 312 285 270 245 255 258 251 243 232 228 232 233 243 244 243 246 250 249 246 244 238 232 230 231 231 228 225
189 163 161 171 238 221 272 280 255 203 263 277 180 161 186 259 302 309 291 278 278 272 265 257 244 240 236 231 238 245 245 241 245 250 247 244 240 236 236 235 234 231 228
250 208 192 212 239 235 252 265 255 226 200 256 276 217 205 200 225 299 308 293 281 273 268 267 261 256 246 233 234 241 244 242 242 245 248 247 244 241 238 237 236 235 233
284 281 227 225 254 256 261 265 263 246 217 215 222 236 253 248 210 215 278 299 301 278 259 254 253 256 252 239 236 243 243 240 239 241 245 247 247 243 241 239 236 236 236
290 278 249 234 238 245 254 255 252 250 243 237 235 217 215 227 234 217 242 268 281 284 281 265 252 253 250 237 242 248 241 238 238 238 241 245 245 243 242 241 237 236 237
257 256 252 248 243 245 246 248 255 264 256 249 244 243 233 233 225 216 227 253 266 283 295 289 262 256 258 243 248 251 246 243 242 237 237 240 243 243 242 241 241 240 241
235 238 240 246 249 255 259 262 267 269 271 260 263 261 256 254 235 218 211 216 267 288 285 277 287 262 261 253 249 249 247 244 242 238 238 239 240 241 243 242 241 240 238
250 255 256 264 269 264 260 261 266 271 278 275 274 272 263 259 254 244 222 200 199 249 271 268 273 277 268 261 261 251 244 247 244 242 241 240 240 239 238 238 237 235 235
251 260 261 264 275 284 285 278 282 283 284 285 279 284 279 270 267 256 235 223 204 212 247 254 252 272 281 284 277 264 256 259 251 246 244 242 241 240 239 237 236 233 232
248 246 250 265 287 297 300 297 290 291 287 288 292 287 283 277 270 269 256 239 229 207 238 268 262 275 277 281 286 280 274 265 259 252 247 244 241 241 241 241 238 234 231
265 259 261 292 303 310 313 295 283 292 287 288 294 300 295 291 281 273 265 258 247 226 219 255 275 277 270 267 274 282 285 278 265 258 249 245 242 240 239 241 238 233 230
292 292 278 287 300 306 311 299 281 278 276 275 276 275 277 280 285 280 271 267 264 261 231 237 267 269 271 273 287 291 290 289 281 270 255 246 243 241 239 239 236 231 227
293 292 281 277 282 292 301 299 296 292 290 287 282 274 271 263 265 273 276 269 265 273 270 260 265 275 275 279 268 279 298 294 288 284 278 263 250 247 244 243 239 232 227
282 276 289 304 303 302 301 305 298 303 300 304 305 296 283 281 281 274 271 265 260 261 269 264 266 280 283 290 278 265 278 292 290 266 273 277 266 258 249 243 239 235 229
290 296 302 296 313 312 316 318 318 304 299 300 303 304 302 300 305 304 295 281 257 241 247 246 254 257 266 264 263 262 267 292 290 268 245 276 250 255 251 239 237 235 230
298 297 291 301 300 303 313 312 309 288 289 291 291 299 306 313 312 300 298 299 288 273 248 228 236 246 249 249 248 262 260 260 261 256 232 276 265 260 255 247 239 233 231
277 270 274 274 288 298 309 309 306 309 305 300 293 289 288 295 300 294 296 302 296 288 270 241 234 245 246 246 236 238 246 270 280 268 208 252 266 256 264 255 244 234 231
285 277 271 268 282 294 307 316 316 320 310 305 301 297 288 286 294 303 299 298 302 300 295 280 260 260 262 260 251 244 255 250 281 281 220 214 257 262 266 261 253 237 231
262 291 295 284 273 286 310 325 320 311 314 309 308 305 299 297 305 311 295 288 295 295 308 318 311 302 284 274 261 223 218 223 250 272 250 209 253 257 288 272 250 240 233